Moorhead, MN

4:20 AM CDT on September 21, 2017 (GMT -0500)
Moorhead Municipal

Weather History for KJKJ - August, 2014

Change the Weather History Date:

Sunday, August 17, 2014

  Actual Average (KFAR) Record (KFAR)
Temperature  
Mean Temperature 70 °F -  
Max Temperature 75 °F 80 °F 98 °F (1945)
Min Temperature 64 °F 56 °F 33 °F (1888)
Cooling Degree Days 4    
Growing Degree Days 20 (Base 50)    
Moisture  
Dew Point 69 °F    
Average Humidity 97    
Maximum Humidity 100    
Minimum Humidity 88    
Precipitation  
Precipitation 0.18 in - - ()
Sea Level Pressure  
Sea Level Pressure 29.91 in    
Wind  
Wind Speed 4 mph (SE)    
Max Wind Speed 10 mph    
Max Gust Speed 16 mph    
Visibility 9 miles    
Events Rain , Thunderstorm    
Averages and records for this station are not official NWS values.
T = Trace of Precipitation, MM = Missing Value Source: NWS Daily Summary

Daily Weather History Graph

Daily Weather History Graph

Search for Another Location

Airport or City:

Trip Planner

Search our weather history database for the weather conditions in past years. The results will help you decide how hot, cold, wet, or windy it might be!

Date:

Astronomy

Aug. 17, 2014 Rise Set
Actual Time 6:26 AM CDT 8:33 PM CDT
Civil Twilight 5:53 AM CDT 9:06 PM CDT
Nautical Twilight 5:12 AM CDT 9:47 PM CDT
Astronomical Twilight 4:27 AM CDT 10:32 PM CDT
Moon No Moon Rise 2:43 PM CDT (8/17)
Length of Visible Light 15h 12m
Length of Day
14h 06m
Waning Gibbous, 48% of the Moon is Illuminated
Aug 17
Waning Gibbous
Aug 25
New
Sep 2
First Quarter
Sep 8
Full
Sep 15
Last Quarter

Hourly Weather History & Observations

Time (CDT) Temp. Dew Point Humidity Pressure Visibility Wind Dir Wind Speed Gust Speed Precip Events Conditions
12:15 AM 71.6 °F 71.6 °F 100% 29.91 in 10.0 mi SW 3.5 mph - N/A   Light Drizzle
12:34 AM 71.6 °F 71.6 °F 100% 29.90 in 10.0 mi Calm Calm - N/A   Light Drizzle
12:55 AM 71.6 °F 71.6 °F 100% 29.93 in 10.0 mi Calm Calm - N/A   Scattered Clouds
1:14 AM 71.6 °F 71.6 °F 100% 29.92 in 10.0 mi Calm Calm - N/A Thunderstorm Scattered Clouds
1:35 AM 71.6 °F 71.6 °F 100% 29.92 in 10.0 mi Calm Calm - N/A   Scattered Clouds
2:14 AM 69.8 °F 69.8 °F 100% 29.90 in 10.0 mi East 3.5 mph - N/A   Mostly Cloudy
2:35 AM 69.8 °F 69.8 °F 100% 29.90 in 10.0 mi Calm Calm - N/A Rain Light Rain
2:55 AM 69.8 °F 69.8 °F 100% 29.90 in 10.0 mi Calm Calm - N/A   Scattered Clouds
3:14 AM 69.8 °F 69.8 °F 100% 29.90 in 10.0 mi Calm Calm - N/A   Scattered Clouds
3:35 AM 69.8 °F 69.8 °F 100% 29.89 in 10.0 mi Calm Calm - N/A   Scattered Clouds
3:55 AM 71.6 °F 71.6 °F 100% 29.90 in 10.0 mi Calm Calm - N/A   Overcast
4:14 AM 71.6 °F 71.6 °F 100% 29.89 in 10.0 mi East 4.6 mph - N/A   Mostly Cloudy
4:35 AM 71.6 °F 71.6 °F 100% 29.90 in 10.0 mi East 3.5 mph - N/A   Mostly Cloudy
4:55 AM 71.6 °F 71.6 °F 100% 29.90 in 10.0 mi ESE 6.9 mph - N/A   Scattered Clouds
5:14 AM 69.8 °F 69.8 °F 100% 29.90 in 10.0 mi ESE 5.8 mph - N/A   Mostly Cloudy
5:35 AM 69.8 °F 69.8 °F 100% 29.90 in 10.0 mi ESE 5.8 mph - N/A   Mostly Cloudy
5:55 AM 71.6 °F 71.6 °F 100% 29.92 in 10.0 mi SSW 5.8 mph - N/A Thunderstorm Mostly Cloudy
6:15 AM 69.8 °F 69.8 °F 100% 29.92 in 7.0 mi SSE 8.1 mph - 0.01 in Rain Rain
6:35 AM 69.8 °F 69.8 °F 100% 29.93 in 10.0 mi South 5.8 mph - 0.04 in Rain Rain
6:54 AM 69.8 °F 69.8 °F 100% 29.93 in 10.0 mi ESE 4.6 mph - 0.07 in Rain Rain
7:15 AM 69.8 °F 69.8 °F 100% 29.93 in 7.0 mi SSE 4.6 mph - 0.07 in Rain Rain
7:34 AM 69.8 °F 69.8 °F 100% 29.93 in 10.0 mi Calm Calm - 0.09 in Rain Light Rain
7:55 AM 69.8 °F 69.8 °F 100% 29.93 in 7.0 mi Calm Calm - 0.09 in   Light Drizzle
8:15 AM 69.8 °F 69.8 °F 100% 29.93 in 7.0 mi Calm Calm - N/A   Light Drizzle
8:34 AM 69.8 °F 69.8 °F 100% 29.93 in 7.0 mi Calm Calm - N/A Rain Light Rain
8:55 AM 69.8 °F 69.8 °F 100% 29.93 in 7.0 mi East 4.6 mph - 0.01 in Rain Light Rain
9:15 AM 69.8 °F 69.8 °F 100% 29.94 in 10.0 mi ESE 4.6 mph - 0.01 in Rain Light Rain
9:34 AM 69.8 °F 69.8 °F 100% 29.94 in 10.0 mi Calm Calm - 0.01 in Rain Light Rain
9:55 AM 69.8 °F 69.8 °F 100% 29.95 in 10.0 mi ESE 4.6 mph - 0.01 in   Overcast
10:15 AM 69.8 °F 69.8 °F 100% 29.95 in 10.0 mi East 6.9 mph - N/A   Overcast
10:34 AM 69.8 °F 69.8 °F 100% 29.94 in 10.0 mi ESE 8.1 mph - N/A   Overcast
10:55 AM 69.8 °F 69.8 °F 100% 29.95 in 10.0 mi ESE 5.8 mph - N/A   Overcast
11:14 AM 69.8 °F 69.8 °F 100% 29.96 in 10.0 mi ESE 6.9 mph - N/A   Overcast
11:35 AM 69.8 °F 69.8 °F 100% 29.96 in 10.0 mi ESE 8.1 mph - N/A   Overcast
11:54 AM 69.8 °F 68.0 °F 94% 29.96 in 10.0 mi ESE 9.2 mph - N/A   Overcast
12:15 PM 69.8 °F 68.0 °F 94% 29.96 in 10.0 mi SE 6.9 mph - N/A   Overcast
12:35 PM 69.8 °F 68.0 °F 94% 29.95 in 10.0 mi SSE 5.8 mph - N/A   Overcast
12:54 PM 69.8 °F 69.8 °F 100% 29.94 in 10.0 mi SE 6.9 mph - N/A   Overcast
1:15 PM 71.6 °F 69.8 °F 94% 29.94 in 10.0 mi SSE 5.8 mph - N/A   Mostly Cloudy
1:35 PM 71.6 °F 69.8 °F 94% 29.94 in 10.0 mi SSE 5.8 mph - N/A   Overcast
1:54 PM 73.4 °F 69.8 °F 88% 29.93 in 10.0 mi SE 6.9 mph - N/A   Mostly Cloudy
2:15 PM 73.4 °F 69.8 °F 88% 29.93 in 10.0 mi SE 4.6 mph - N/A   Mostly Cloudy
2:35 PM 73.4 °F 69.8 °F 88% 29.92 in 10.0 mi South 4.6 mph - N/A   Mostly Cloudy
2:54 PM 73.4 °F 71.6 °F 94% 29.92 in 10.0 mi South 3.5 mph - N/A   Mostly Cloudy
3:15 PM 73.4 °F 71.6 °F 94% 29.91 in 10.0 mi SSE 5.8 mph - N/A   Overcast
3:34 PM 73.4 °F 71.6 °F 94% 29.91 in 10.0 mi Calm Calm - N/A   Overcast
3:55 PM 73.4 °F 71.6 °F 94% 29.91 in 10.0 mi South 4.6 mph - N/A   Overcast
4:15 PM 75.2 °F 71.6 °F 89% 29.90 in 10.0 mi South 4.6 mph - N/A   Mostly Cloudy
4:34 PM 75.2 °F 71.6 °F 89% 29.91 in 10.0 mi South 3.5 mph - N/A   Mostly Cloudy
5:15 PM 73.4 °F 71.6 °F 94% 29.89 in 10.0 mi SSE 8.1 mph - N/A   Overcast
5:34 PM 73.4 °F 71.6 °F 94% 29.88 in 10.0 mi SSE 8.1 mph - N/A   Overcast
5:55 PM 73.4 °F 69.8 °F 88% 29.88 in 10.0 mi SE 6.9 mph - N/A   Mostly Cloudy
6:15 PM 71.6 °F 69.8 °F 94% 29.87 in 10.0 mi SE 6.9 mph - N/A   Scattered Clouds
6:34 PM 71.6 °F 69.8 °F 94% 29.86 in 10.0 mi SE 8.1 mph - N/A   Mostly Cloudy
6:55 PM 71.6 °F 68.0 °F 88% 29.85 in 10.0 mi ESE 9.2 mph - N/A   Scattered Clouds
7:15 PM 71.6 °F 68.0 °F 88% 29.85 in 10.0 mi SE 5.8 mph - N/A   Clear
7:34 PM 69.8 °F 68.0 °F 94% 29.86 in 10.0 mi SSE 6.9 mph - N/A   Clear
7:55 PM 69.8 °F 68.0 °F 94% 29.87 in 10.0 mi SSE 9.2 mph - N/A   Clear
8:15 PM 68.0 °F 66.2 °F 94% 29.87 in 10.0 mi SE 5.8 mph - N/A   Clear
8:35 PM 66.2 °F 66.2 °F 100% 29.87 in 10.0 mi SSE 6.9 mph - N/A   Clear
8:55 PM 66.2 °F 66.2 °F 100% 29.87 in 10.0 mi SSE 6.9 mph - N/A   Clear
9:14 PM 66.2 °F 66.2 °F 100% 29.87 in 10.0 mi SSE 5.8 mph - N/A   Clear
9:35 PM 64.4 °F 64.4 °F 100% 29.88 in 7.0 mi South 10.4 mph - N/A   Scattered Clouds
9:55 PM 64.4 °F 64.4 °F 100% 29.87 in 7.0 mi SSE 10.4 mph 16.1 mph N/A   Overcast
10:14 PM 64.4 °F 64.4 °F 100% 29.87 in 7.0 mi SSE 10.4 mph - N/A   Overcast
10:35 PM 66.2 °F 66.2 °F 100% 29.87 in 5.0 mi SSE 5.8 mph - N/A   Overcast
10:55 PM 66.2 °F 66.2 °F 100% 29.87 in 5.0 mi SSE 5.8 mph - N/A   Overcast
11:15 PM 66.2 °F 66.2 °F 100% 29.87 in 5.0 mi SE 4.6 mph - N/A   Mostly Cloudy
11:35 PM 66.2 °F 66.2 °F 100% 29.86 in 5.0 mi SSE 4.6 mph - N/A   Mostly Cloudy
11:54 PM 66.2 °F 66.2 °F 100% 29.85 in 7.0 mi SSE 6.9 mph - N/A   Mostly Cloudy